TOM910 EGKK-EGPH

Flight info

Callsign TOM910
Flight time 1h 2m
Altitude 36000
Route LAM L10 BPK UN601 RIBEL DCT INPIP
Aircraft B738/M-SDE2E3FGHIRWXY/LB1

Departure

Time 2026-04-24 19:03
Airport London Gatwick Airport (EGKK)

Arrival

Time 2026-04-24 20:06
Airport Edinburgh Airport (EGPH)
Time Latitude Longitude Altitude Speed Heading
2026-04-24 18:54 51.15121 -0.18803 206 ft 23 kts 257°
2026-04-24 18:55 51.15056 -0.19288 209 ft 22 kts 258°
2026-04-24 18:55 51.15023 -0.19521 208 ft 21 kts 257°
2026-04-24 18:55 51.14992 -0.19749 204 ft 21 kts 258°
2026-04-24 18:56 51.14962 -0.19968 204 ft 20 kts 257°
2026-04-24 18:56 51.14932 -0.20182 207 ft 19 kts 257°
2026-04-24 18:56 51.14904 -0.20389 204 ft 19 kts 257°
2026-04-24 18:56 51.14875 -0.20588 209 ft 18 kts 257°
2026-04-24 18:57 51.14848 -0.20782 204 ft 18 kts 257°
2026-04-24 18:57 51.14823 -0.20966 210 ft 17 kts 258°
2026-04-24 18:57 51.14798 -0.21137 213 ft 13 kts 246°
2026-04-24 18:57 51.14771 -0.21275 204 ft 13 kts 257°
2026-04-24 18:58 51.14739 -0.21401 211 ft 13 kts 208°
2026-04-24 18:58 51.14665 -0.21364 211 ft 10 kts 137°
2026-04-24 18:58 51.14626 -0.21336 205 ft 3 kts 163°
2026-04-24 18:58 51.14617 -0.21331 213 ft 0 kts 163°
2026-04-24 19:01 51.14592 -0.21320 224 ft 10 kts 163°
2026-04-24 19:01 51.14523 -0.21223 207 ft 15 kts 113°
2026-04-24 19:01 51.14525 -0.21138 215 ft 1 kts 77°
2026-04-24 19:01 51.14525 -0.21137 215 ft 0 kts 77°
2026-04-24 19:02 51.14554 -0.20934 215 ft 54 kts 77°
2026-04-24 19:03 51.14704 -0.19853 208 ft 143 kts 78°
2026-04-24 19:03 51.14951 -0.18073 776 ft 173 kts 77°
2026-04-24 19:03 51.15220 -0.16193 2107 ft 175 kts 78°
2026-04-24 19:03 51.15500 -0.14187 2841 ft 200 kts 79°
2026-04-24 19:04 51.15810 -0.11863 3250 ft 225 kts 78°
2026-04-24 19:04 51.16168 -0.09267 3700 ft 252 kts 78°
2026-04-24 19:04 51.16654 -0.06559 4544 ft 258 kts 65°
2026-04-24 19:04 51.17710 -0.04207 5259 ft 263 kts 53°
2026-04-24 19:05 51.18870 -0.01910 5790 ft 263 kts 52°
2026-04-24 19:05 51.19996 0.00368 6017 ft 270 kts 53°
2026-04-24 19:05 51.21165 0.02763 6358 ft 277 kts 53°
2026-04-24 19:05 51.22353 0.05216 6927 ft 281 kts 53°
2026-04-24 19:06 51.23547 0.07689 7226 ft 282 kts 53°
2026-04-24 19:06 51.24718 0.10207 7257 ft 281 kts 59°
2026-04-24 19:06 51.25330 0.13133 7294 ft 277 kts 80°
2026-04-24 19:06 51.25664 0.16167 7281 ft 277 kts 80°
2026-04-24 19:07 51.26010 0.19188 7282 ft 277 kts 80°
2026-04-24 19:07 51.26356 0.22184 7282 ft 277 kts 79°
2026-04-24 19:07 51.26596 0.24231 7284 ft 277 kts 79°
2026-04-24 19:07 51.27067 0.28233 7289 ft 277 kts 79°
2026-04-24 19:08 51.27444 0.31257 7276 ft 277 kts 74°
2026-04-24 19:08 51.28350 0.33941 7293 ft 277 kts 47°
2026-04-24 19:08 51.29938 0.35669 7272 ft 278 kts 20°
2026-04-24 19:08 51.31837 0.36170 7300 ft 278 kts
2026-04-24 19:09 51.33774 0.36253 7270 ft 279 kts
2026-04-24 19:09 51.35695 0.36292 7261 ft 280 kts
2026-04-24 19:09 51.37644 0.36077 7245 ft 281 kts 344°
2026-04-24 19:09 51.39444 0.34810 7602 ft 285 kts 332°
2026-04-24 19:10 51.41187 0.33289 8626 ft 283 kts 330°
2026-04-24 19:10 51.42908 0.31766 9678 ft 284 kts 330°
2026-04-24 19:10 51.44634 0.30239 10564 ft 288 kts 330°
2026-04-24 19:10 51.46412 0.28673 11371 ft 294 kts 330°
2026-04-24 19:11 51.48233 0.27081 12199 ft 299 kts 330°
2026-04-24 19:11 51.49994 0.25240 13026 ft 304 kts 322°
2026-04-24 19:11 51.51686 0.23160 13887 ft 308 kts 321°
2026-04-24 19:11 51.53380 0.21023 14693 ft 311 kts 320°
2026-04-24 19:12 51.55098 0.18875 15493 ft 313 kts 320°
2026-04-24 19:12 51.56831 0.16730 16332 ft 315 kts 320°
2026-04-24 19:12 51.58553 0.14604 17125 ft 318 kts 320°
2026-04-24 19:12 51.60343 0.12423 17767 ft 328 kts 322°
2026-04-24 19:13 51.61622 0.11007 17867 ft 345 kts 324°
2026-04-24 19:13 51.64443 0.08106 18085 ft 373 kts 326°
2026-04-24 19:13 51.66719 0.05815 18282 ft 392 kts 326°
2026-04-24 19:13 51.69025 0.03488 18737 ft 401 kts 326°
2026-04-24 19:14 51.71385 0.01089 19220 ft 401 kts 325°
2026-04-24 19:14 51.73726 -0.01309 19244 ft 395 kts 325°
2026-04-24 19:14 51.76050 -0.03706 19252 ft 395 kts 325°
2026-04-24 19:14 51.78369 -0.06113 19263 ft 399 kts 325°
2026-04-24 19:15 51.80708 -0.08549 19265 ft 398 kts 325°
2026-04-24 19:15 51.83045 -0.10991 19265 ft 399 kts 326°
2026-04-24 19:15 51.85355 -0.13406 19261 ft 400 kts 326°
2026-04-24 19:15 51.87693 -0.15855 19263 ft 400 kts 326°
2026-04-24 19:16 51.92369 -0.20760 19267 ft 400 kts 326°
2026-04-24 19:16 51.94710 -0.23220 19266 ft 401 kts 326°
2026-04-24 19:16 51.97071 -0.25705 19563 ft 407 kts 325°
2026-04-24 19:17 51.99436 -0.28195 20441 ft 401 kts 324°
2026-04-24 19:17 52.01773 -0.30658 21250 ft 399 kts 324°
2026-04-24 19:17 52.04102 -0.33117 21875 ft 401 kts 323°
2026-04-24 19:17 52.06455 -0.35607 22466 ft 404 kts 323°
2026-04-24 19:18 52.08816 -0.38109 23081 ft 405 kts 323°
2026-04-24 19:18 52.11178 -0.40613 23719 ft 406 kts 322°
2026-04-24 19:18 52.13550 -0.43131 24240 ft 407 kts 322°
2026-04-24 19:18 52.15929 -0.45660 24677 ft 410 kts 322°
2026-04-24 19:19 52.18302 -0.48186 25086 ft 413 kts 323°
2026-04-24 19:19 52.20788 -0.50836 25520 ft 416 kts 323°
2026-04-24 19:19 52.23152 -0.53359 25935 ft 418 kts 323°
2026-04-24 19:19 52.25592 -0.55967 26349 ft 420 kts 323°
2026-04-24 19:20 52.28051 -0.58597 26751 ft 422 kts 323°
2026-04-24 19:20 52.30521 -0.61244 27068 ft 427 kts 323°
2026-04-24 19:20 52.33024 -0.63930 27397 ft 431 kts 323°
2026-04-24 19:20 52.35497 -0.66586 27837 ft 431 kts 323°
2026-04-24 19:21 52.38013 -0.69292 28278 ft 432 kts 323°
2026-04-24 19:21 52.40525 -0.71998 28662 ft 433 kts 323°
2026-04-24 19:21 52.43057 -0.74730 29012 ft 435 kts 323°
2026-04-24 19:21 52.45588 -0.77464 29350 ft 437 kts 323°
2026-04-24 19:22 52.47273 -0.79287 29630 ft 437 kts 323°
2026-04-24 19:22 52.50657 -0.82951 30397 ft 432 kts 323°
2026-04-24 19:22 52.53155 -0.85659 30928 ft 428 kts 323°
2026-04-24 19:22 52.55609 -0.88324 31374 ft 426 kts 323°
2026-04-24 19:23 52.58091 -0.91026 31665 ft 428 kts 323°
2026-04-24 19:23 52.60585 -0.93744 31927 ft 430 kts 323°
2026-04-24 19:23 52.63109 -0.96412 32232 ft 431 kts 325°
2026-04-24 19:23 52.65705 -0.98971 32226 ft 436 kts 326°
2026-04-24 19:24 52.70890 -1.04004 32235 ft 434 kts 326°
2026-04-24 19:24 52.76053 -1.09140 32298 ft 432 kts 326°
2026-04-24 19:25 52.81181 -1.14303 32268 ft 430 kts 326°
2026-04-24 19:25 52.86245 -1.19416 32263 ft 428 kts 326°
2026-04-24 19:26 52.91325 -1.24552 32266 ft 426 kts 326°
2026-04-24 19:26 52.96392 -1.29689 32264 ft 426 kts 326°
2026-04-24 19:27 53.01452 -1.34821 32285 ft 426 kts 327°
2026-04-24 19:27 53.06493 -1.39942 32270 ft 426 kts 326°
2026-04-24 19:28 53.10713 -1.44240 32269 ft 426 kts 326°
2026-04-24 19:28 53.15774 -1.49411 32271 ft 427 kts 326°
2026-04-24 19:29 53.23365 -1.57196 32280 ft 431 kts 327°
2026-04-24 19:30 53.28512 -1.62491 32276 ft 435 kts 327°
2026-04-24 19:30 53.33678 -1.67815 32280 ft 436 kts 327°
2026-04-24 19:31 53.38849 -1.73156 32269 ft 437 kts 327°
2026-04-24 19:31 53.43997 -1.78489 32271 ft 436 kts 327°
2026-04-24 19:32 53.49151 -1.83848 32273 ft 435 kts 327°
2026-04-24 19:32 53.54246 -1.89174 32261 ft 424 kts 327°
2026-04-24 19:33 53.59218 -1.94385 32270 ft 423 kts 327°
2026-04-24 19:33 53.64223 -1.99624 32272 ft 423 kts 327°
2026-04-24 19:34 53.69206 -2.04840 32264 ft 423 kts 327°
2026-04-24 19:34 53.74237 -2.10080 32250 ft 424 kts 329°
2026-04-24 19:35 53.79654 -2.14030 32262 ft 427 kts 338°
2026-04-24 19:35 53.85207 -2.17730 32268 ft 429 kts 336°
2026-04-24 19:36 53.90763 -2.21554 32261 ft 431 kts 336°
2026-04-24 19:36 53.96301 -2.25353 32255 ft 433 kts 337°
2026-04-24 19:37 54.01892 -2.29198 32262 ft 433 kts 337°
2026-04-24 19:37 54.04694 -2.31128 32115 ft 433 kts 337°
2026-04-24 19:37 54.07489 -2.33055 31884 ft 432 kts 337°
2026-04-24 19:37 54.10281 -2.34983 31685 ft 433 kts 337°
2026-04-24 19:38 54.13079 -2.36918 31487 ft 434 kts 337°
2026-04-24 19:38 54.15877 -2.38855 31279 ft 429 kts 337°
2026-04-24 19:38 54.18599 -2.40742 31086 ft 417 kts 337°
2026-04-24 19:38 54.21233 -2.42570 30879 ft 409 kts 337°
2026-04-24 19:39 54.23862 -2.44400 30690 ft 408 kts 338°
2026-04-24 19:39 54.26503 -2.46239 30509 ft 410 kts 338°
2026-04-24 19:39 54.29158 -2.48092 30311 ft 412 kts 338°
2026-04-24 19:39 54.31817 -2.49950 30092 ft 413 kts 338°
2026-04-24 19:40 54.34439 -2.51784 29847 ft 409 kts 338°
2026-04-24 19:40 54.37068 -2.53625 29630 ft 405 kts 338°
2026-04-24 19:40 54.39661 -2.55445 29403 ft 402 kts 338°
2026-04-24 19:40 54.42243 -2.57258 29176 ft 400 kts 338°
2026-04-24 19:41 54.44813 -2.59065 28952 ft 398 kts 338°
2026-04-24 19:41 54.47384 -2.60876 28735 ft 398 kts 338°
2026-04-24 19:41 54.49929 -2.62671 28520 ft 399 kts 338°
2026-04-24 19:41 54.52494 -2.64483 28310 ft 400 kts 338°
2026-04-24 19:42 54.55069 -2.66304 28098 ft 400 kts 338°
2026-04-24 19:42 54.57653 -2.68133 27891 ft 400 kts 338°
2026-04-24 19:42 54.60233 -2.69958 27660 ft 400 kts 337°
2026-04-24 19:42 54.62801 -2.71781 27486 ft 399 kts 337°
2026-04-24 19:43 54.65380 -2.73617 27309 ft 398 kts 337°
2026-04-24 19:43 54.67938 -2.75441 27098 ft 398 kts 337°
2026-04-24 19:43 54.70500 -2.77269 26827 ft 397 kts 338°
2026-04-24 19:43 54.73025 -2.79072 26463 ft 397 kts 337°
2026-04-24 19:44 54.75583 -2.80901 26056 ft 395 kts 337°
2026-04-24 19:44 54.78120 -2.82717 25673 ft 393 kts 337°
2026-04-24 19:44 54.80643 -2.84526 25280 ft 390 kts 338°
2026-04-24 19:44 54.83115 -2.86300 24902 ft 387 kts 338°
2026-04-24 19:45 54.85601 -2.88087 24522 ft 385 kts 338°
2026-04-24 19:45 54.88076 -2.89868 24152 ft 382 kts 338°
2026-04-24 19:45 54.90532 -2.91643 23775 ft 380 kts 338°
2026-04-24 19:45 54.92964 -2.93405 23333 ft 378 kts 338°
2026-04-24 19:46 54.95386 -2.95163 22894 ft 376 kts 338°
2026-04-24 19:46 54.97771 -2.96896 22474 ft 374 kts 337°
2026-04-24 19:46 55.00171 -2.98642 22051 ft 371 kts 337°
2026-04-24 19:46 55.02541 -3.00368 21634 ft 369 kts 337°
2026-04-24 19:47 55.04904 -3.02092 21227 ft 366 kts 337°
2026-04-24 19:47 55.07255 -3.03809 20773 ft 365 kts 337°
2026-04-24 19:47 55.09595 -3.05519 20275 ft 364 kts 337°
2026-04-24 19:47 55.11930 -3.07228 19780 ft 360 kts 337°
2026-04-24 19:48 55.14221 -3.08907 19290 ft 354 kts 337°
2026-04-24 19:48 55.16485 -3.10566 18815 ft 350 kts 337°
2026-04-24 19:48 55.20958 -3.13848 17775 ft 347 kts 337°
2026-04-24 19:49 55.25364 -3.17086 16763 ft 343 kts 336°
2026-04-24 19:49 55.29772 -3.20104 15716 ft 337 kts 348°
2026-04-24 19:50 55.36551 -3.19510 14279 ft 316 kts
2026-04-24 19:50 55.38714 -3.19130 13776 ft 309 kts
2026-04-24 19:51 55.42915 -3.18421 12726 ft 298 kts
2026-04-24 19:51 55.44971 -3.18087 12221 ft 293 kts
2026-04-24 19:52 55.48991 -3.17446 11220 ft 286 kts
2026-04-24 19:52 55.50970 -3.17133 10726 ft 284 kts
2026-04-24 19:52 55.52925 -3.16825 10244 ft 280 kts
2026-04-24 19:52 55.54858 -3.16520 9727 ft 277 kts
2026-04-24 19:53 55.56754 -3.16220 9214 ft 275 kts
2026-04-24 19:53 55.58663 -3.15920 8697 ft 273 kts
2026-04-24 19:53 55.62318 -3.15342 8243 ft 253 kts
2026-04-24 19:54 55.64059 -3.15066 8233 ft 250 kts
2026-04-24 19:54 55.65792 -3.14793 8143 ft 248 kts
2026-04-24 19:54 55.67503 -3.14522 7805 ft 246 kts
2026-04-24 19:54 55.69216 -3.14251 7320 ft 248 kts
2026-04-24 19:55 55.70355 -3.14071 7034 ft 248 kts
2026-04-24 19:55 55.72627 -3.13710 6488 ft 246 kts
2026-04-24 19:55 55.74309 -3.13890 6063 ft 242 kts 339°
2026-04-24 19:55 55.75689 -3.15600 6042 ft 246 kts 309°
2026-04-24 19:56 55.76391 -3.18353 5999 ft 247 kts 279°
2026-04-24 19:56 55.76440 -3.21390 6003 ft 246 kts 270°
2026-04-24 19:56 55.76376 -3.24401 6002 ft 247 kts 269°
2026-04-24 19:56 55.76298 -3.27455 5998 ft 248 kts 269°
2026-04-24 19:57 55.76215 -3.30520 5999 ft 247 kts 269°
2026-04-24 19:57 55.76132 -3.33545 5838 ft 244 kts 269°
2026-04-24 19:57 55.76047 -3.36541 5409 ft 243 kts 269°
2026-04-24 19:57 55.75969 -3.39526 5109 ft 237 kts 268°
2026-04-24 19:58 55.75900 -3.42396 5031 ft 235 kts 268°
2026-04-24 19:58 55.75833 -3.45295 4999 ft 235 kts 268°
2026-04-24 19:58 55.75768 -3.48195 4996 ft 234 kts 269°
2026-04-24 19:58 55.75704 -3.51067 4993 ft 232 kts 268°
2026-04-24 19:59 55.75640 -3.53935 4997 ft 233 kts 268°
2026-04-24 19:59 55.75576 -3.56820 4998 ft 234 kts 268°
2026-04-24 19:59 55.75604 -3.59709 4971 ft 233 kts 283°
2026-04-24 19:59 55.76331 -3.62174 4900 ft 221 kts 315°
2026-04-24 20:00 55.77462 -3.63853 4682 ft 208 kts 322°
2026-04-24 20:00 55.78618 -3.65398 4225 ft 206 kts 323°
2026-04-24 20:00 55.79768 -3.66919 4047 ft 208 kts 323°
2026-04-24 20:00 55.80971 -3.68338 3993 ft 211 kts 337°
2026-04-24 20:01 55.82407 -3.68560 3995 ft 208 kts 13°
2026-04-24 20:01 55.83718 -3.67526 3846 ft 205 kts 27°
2026-04-24 20:01 55.84930 -3.66274 3560 ft 200 kts 37°
2026-04-24 20:01 55.85790 -3.64420 3417 ft 193 kts 58°
2026-04-24 20:02 55.86259 -3.63049 3252 ft 191 kts 56°
2026-04-24 20:02 55.87193 -3.60392 2920 ft 189 kts 58°
2026-04-24 20:02 55.87866 -3.58408 2671 ft 189 kts 58°
2026-04-24 20:02 55.88540 -3.56402 2416 ft 187 kts 58°
2026-04-24 20:03 55.89195 -3.54454 2177 ft 179 kts 58°
2026-04-24 20:03 55.89822 -3.52590 1935 ft 171 kts 58°
2026-04-24 20:03 55.90425 -3.50800 1705 ft 166 kts 58°
2026-04-24 20:03 55.91015 -3.49047 1478 ft 164 kts 58°
2026-04-24 20:04 55.91604 -3.47302 1272 ft 163 kts 58°
2026-04-24 20:04 55.92155 -3.45665 1095 ft 144 kts 59°
2026-04-24 20:04 55.92661 -3.44166 852 ft 136 kts 58°
2026-04-24 20:04 55.93143 -3.42738 684 ft 135 kts 58°
2026-04-24 20:05 55.93620 -3.41324 514 ft 131 kts 58°
2026-04-24 20:05 55.94089 -3.39923 306 ft 132 kts 58°
2026-04-24 20:05 55.94558 -3.38563 142 ft 130 kts 58°
2026-04-24 20:05 55.94975 -3.37332 110 ft 84 kts 58°
2026-04-24 20:06 55.95226 -3.36586 112 ft 47 kts 59°
2026-04-24 20:06 55.95246 -3.36428 110 ft 9 kts 125°
2026-04-24 20:06 55.95220 -3.36380 113 ft 1 kts 142°
2026-04-24 20:06 55.95220 -3.36379 113 ft 0 kts 142°
2026-04-24 20:07 55.95213 -3.36370 112 ft 4 kts 142°
2026-04-24 20:07 55.95130 -3.36327 111 ft 16 kts 202°
2026-04-24 20:07 55.95041 -3.36388 114 ft 11 kts 184°
2026-04-24 20:07 55.94993 -3.36459 115 ft 6 kts 238°
2026-04-24 20:08 55.94965 -3.36474 114 ft 5 kts 163°
2026-04-24 20:08 55.94936 -3.36446 114 ft 4 kts 150°
2026-04-24 20:08 55.94925 -3.36435 113 ft 0 kts 150°